Time,TemperatureF,DewpointF,PressureIn,WindDirection,WindDirectionDegrees,WindSpeedMPH,WindSpeedGustMPH,Humidity,HourlyPrecipIn,Conditions,Clouds,dailyrainin,SoftwareType,DateUTC
2014-01-22 00:01:00,3.4,4.0,28.87,NW,315,1.0,2.0,91,0.00,,,0.00,Rainwise IP-100,2014-01-22 05:01:00,
2014-01-22 00:02:00,3.4,4.0,28.87,NW,315,2.0,2.0,91,0.00,,,0.00,Rainwise IP-100,2014-01-22 05:02:00,
2014-01-22 00:04:00,3.5,4.0,28.87,NW,315,1.0,2.0,91,0.00,,,0.00,Rainwise IP-100,2014-01-22 05:04:00,
2014-01-22 00:09:00,3.6,4.0,28.87,NW,315,2.0,2.0,91,0.00,,,0.00,Rainwise IP-100,2014-01-22 05:09:00,
2014-01-22 00:10:00,3.5,4.0,28.87,NW,315,2.0,2.0,91,0.00,,,0.00,Rainwise IP-100,2014-01-22 05:10:00,
2014-01-22 00:12:00,3.5,4.0,28.87,NW,315,2.0,2.0,91,0.00,,,0.00,Rainwise IP-100,2014-01-22 05:12:00,
2014-01-22 00:17:00,3.5,4.0,28.87,NW,315,2.0,2.0,91,0.00,,,0.00,Rainwise IP-100,2014-01-22 05:17:00,
2014-01-22 00:20:00,3.5,4.0,28.87,NW,315,1.0,3.0,91,0.00,,,0.00,Rainwise IP-100,2014-01-22 05:20:00,
2014-01-22 00:25:00,3.5,4.0,28.87,NW,315,2.0,5.0,91,0.00,,,0.00,Rainwise IP-100,2014-01-22 05:25:00,
2014-01-22 00:30:00,3.5,4.0,28.87,NNW,337,1.0,2.0,91,0.00,,,0.00,Rainwise IP-100,2014-01-22 05:30:00,
2014-01-22 00:35:00,3.6,4.0,28.87,NNW,337,1.0,2.0,91,0.00,,,0.00,Rainwise IP-100,2014-01-22 05:35:00,
2014-01-22 00:40:00,3.6,4.0,28.87,WNW,292,2.0,2.0,91,0.00,,,0.00,Rainwise IP-100,2014-01-22 05:40:00,
2014-01-22 00:46:00,3.6,4.0,28.87,WNW,292,1.0,2.0,91,0.00,,,0.00,Rainwise IP-100,2014-01-22 05:46:00,
2014-01-22 00:51:00,3.6,4.0,28.87,WNW,292,1.0,2.0,91,0.00,,,0.00,Rainwise IP-100,2014-01-22 05:51:00,
2014-01-22 00:56:00,3.6,4.0,28.86,WNW,292,0.0,2.0,91,0.00,,,0.00,Rainwise IP-100,2014-01-22 05:56:00,
2014-01-22 01:01:00,3.6,4.0,28.86,NNW,337,1.0,2.0,91,0.00,,,0.00,Rainwise IP-100,2014-01-22 06:01:00,
2014-01-22 01:06:00,3.6,4.0,28.86,NNW,337,1.0,2.0,91,0.00,,,0.00,Rainwise IP-100,2014-01-22 06:06:00,
2014-01-22 01:11:00,3.6,4.0,28.86,NNW,337,2.0,2.0,91,0.00,,,0.00,Rainwise IP-100,2014-01-22 06:11:00,
2014-01-22 01:16:00,3.6,4.0,28.85,NNW,337,2.0,2.0,91,0.00,,,0.00,Rainwise IP-100,2014-01-22 06:16:00,
2014-01-22 01:21:00,3.6,4.0,28.85,NNW,337,1.0,2.0,91,0.00,,,0.00,Rainwise IP-100,2014-01-22 06:21:00,
2014-01-22 01:26:00,3.6,4.0,28.85,NNW,337,1.0,2.0,91,0.00,,,0.00,Rainwise IP-100,2014-01-22 06:26:00,
2014-01-22 01:31:00,3.6,4.0,28.85,WNW,292,1.0,2.0,91,0.00,,,0.00,Rainwise IP-100,2014-01-22 06:31:00,
2014-01-22 01:36:00,3.6,4.0,28.85,WNW,292,0.0,2.0,91,0.00,,,0.00,Rainwise IP-100,2014-01-22 06:36:00,
2014-01-22 01:41:00,3.6,4.0,28.85,NNW,337,0.0,2.0,91,0.00,,,0.00,Rainwise IP-100,2014-01-22 06:41:00,
2014-01-22 01:47:00,3.5,4.0,28.85,NNW,337,0.0,2.0,91,0.00,,,0.00,Rainwise IP-100,2014-01-22 06:47:00,
2014-01-22 01:52:00,3.5,4.0,28.85,NNW,337,1.0,2.0,91,0.00,,,0.00,Rainwise IP-100,2014-01-22 06:52:00,
2014-01-22 01:57:00,3.5,4.0,28.85,NNW,337,2.0,4.0,91,0.00,,,0.00,Rainwise IP-100,2014-01-22 06:57:00,
2014-01-22 02:02:00,3.5,4.0,28.85,NNW,337,1.0,2.0,91,0.00,,,0.00,Rainwise IP-100,2014-01-22 07:02:00,
2014-01-22 02:07:00,3.5,4.0,28.85,NNW,337,2.0,4.0,91,0.00,,,0.00,Rainwise IP-100,2014-01-22 07:07:00,
2014-01-22 02:12:00,3.5,4.0,28.85,NNW,337,1.0,3.0,91,0.00,,,0.00,Rainwise IP-100,2014-01-22 07:12:00,
2014-01-22 02:17:00,3.4,4.0,28.84,NNW,337,1.0,2.0,91,0.00,,,0.00,Rainwise IP-100,2014-01-22 07:17:00,
2014-01-22 02:22:00,3.4,4.0,28.84,NNW,337,2.0,2.0,91,0.00,,,0.00,Rainwise IP-100,2014-01-22 07:22:00,
2014-01-22 02:27:00,3.4,4.0,28.84,NW,315,0.0,2.0,91,0.00,,,0.00,Rainwise IP-100,2014-01-22 07:27:00,
2014-01-22 02:32:00,3.4,4.0,28.84,North,360,0.0,4.0,91,0.00,,,0.00,Rainwise IP-100,2014-01-22 07:32:00,
2014-01-22 02:37:00,3.5,4.0,28.84,NNW,337,1.0,2.0,91,0.00,,,0.00,Rainwise IP-100,2014-01-22 07:37:00,
2014-01-22 02:42:00,3.6,4.0,28.84,NW,315,2.0,4.0,91,0.00,,,0.00,Rainwise IP-100,2014-01-22 07:42:00,
2014-01-22 02:48:00,3.6,4.0,28.84,NNW,337,1.0,2.0,91,0.00,,,0.00,Rainwise IP-100,2014-01-22 07:48:00,
2014-01-22 02:53:00,3.7,4.0,28.84,NNW,337,1.0,2.0,91,0.00,,,0.00,Rainwise IP-100,2014-01-22 07:53:00,
2014-01-22 02:58:00,3.7,4.0,28.84,North,360,2.0,5.0,91,0.00,,,0.00,Rainwise IP-100,2014-01-22 07:58:00,
2014-01-22 03:03:00,3.6,4.0,28.84,NNW,337,1.0,4.0,91,0.00,,,0.00,Rainwise IP-100,2014-01-22 08:03:00,
2014-01-22 03:08:00,3.6,4.0,28.84,NNW,337,2.0,2.0,91,0.00,,,0.00,Rainwise IP-100,2014-01-22 08:08:00,
2014-01-22 03:13:00,3.6,4.0,28.84,NNW,337,1.0,4.0,91,0.00,,,0.00,Rainwise IP-100,2014-01-22 08:13:00,
2014-01-22 03:18:00,3.6,4.0,28.84,NNW,337,1.0,4.0,91,0.00,,,0.00,Rainwise IP-100,2014-01-22 08:18:00,
2014-01-22 03:23:00,3.4,4.0,28.83,NNW,337,2.0,3.0,91,0.00,,,0.00,Rainwise IP-100,2014-01-22 08:23:00,
2014-01-22 03:28:00,3.1,4.0,28.83,NNW,337,0.0,2.0,91,0.00,,,0.00,Rainwise IP-100,2014-01-22 08:28:00,
2014-01-22 03:33:00,2.8,4.0,28.83,NNW,337,1.0,2.0,91,0.00,,,0.00,Rainwise IP-100,2014-01-22 08:33:00,
2014-01-22 03:38:00,2.8,4.0,28.83,North,360,2.0,2.0,91,0.00,,,0.00,Rainwise IP-100,2014-01-22 08:38:00,
2014-01-22 03:43:00,2.9,4.0,28.83,NE,45,1.0,3.0,91,0.00,,,0.00,Rainwise IP-100,2014-01-22 08:43:00,
2014-01-22 03:49:00,3.2,4.0,28.83,East,90,2.0,2.0,91,0.00,,,0.00,Rainwise IP-100,2014-01-22 08:49:00,
2014-01-22 03:54:00,2.9,4.0,28.83,East,90,2.0,4.0,91,0.00,,,0.00,Rainwise IP-100,2014-01-22 08:54:00,
2014-01-22 03:59:00,2.6,4.0,28.83,East,90,2.0,6.0,91,0.00,,,0.00,Rainwise IP-100,2014-01-22 08:59:00,
2014-01-22 04:04:00,2.3,4.0,28.83,East,90,2.0,6.0,91,0.00,,,0.00,Rainwise IP-100,2014-01-22 09:04:00,
2014-01-22 04:09:00,2.1,4.0,28.83,ENE,67,2.0,3.0,91,0.00,,,0.00,Rainwise IP-100,2014-01-22 09:09:00,
2014-01-22 04:15:00,1.9,4.0,28.83,ENE,67,2.0,4.0,91,0.00,,,0.00,Rainwise IP-100,2014-01-22 09:15:00,
2014-01-22 04:20:00,1.9,4.0,28.83,East,90,0.0,2.0,91,0.00,,,0.00,Rainwise IP-100,2014-01-22 09:20:00,
2014-01-22 04:25:00,1.7,4.0,28.83,ENE,67,2.0,4.0,91,0.00,,,0.00,Rainwise IP-100,2014-01-22 09:25:00,
2014-01-22 04:30:00,1.4,4.0,28.82,East,90,1.0,2.0,91,0.00,,,0.00,Rainwise IP-100,2014-01-22 09:30:00,
2014-01-22 04:35:00,1.3,4.0,28.82,ESE,112,2.0,3.0,91,0.00,,,0.00,Rainwise IP-100,2014-01-22 09:35:00,
2014-01-22 04:40:00,1.1,4.0,28.82,ESE,112,2.0,2.0,91,0.00,,,0.00,Rainwise IP-100,2014-01-22 09:40:00,
2014-01-22 04:45:00,0.9,4.0,28.82,East,90,0.0,2.0,91,0.00,,,0.00,Rainwise IP-100,2014-01-22 09:45:00,
2014-01-22 04:51:00,0.7,4.0,28.82,East,90,2.0,2.0,91,0.00,,,0.00,Rainwise IP-100,2014-01-22 09:51:00,
2014-01-22 04:56:00,0.5,4.0,28.82,East,90,2.0,2.0,91,0.00,,,0.00,Rainwise IP-100,2014-01-22 09:56:00,
2014-01-22 05:01:00,0.5,4.0,28.82,East,90,2.0,2.0,91,0.00,,,0.00,Rainwise IP-100,2014-01-22 10:01:00,
2014-01-22 05:06:00,0.3,0.0,28.83,ESE,112,2.0,2.0,91,0.00,,,0.00,Rainwise IP-100,2014-01-22 10:06:00,
2014-01-22 05:11:00,0.1,0.0,28.83,ESE,112,2.0,2.0,91,0.00,,,0.00,Rainwise IP-100,2014-01-22 10:11:00,
2014-01-22 05:16:00,-0.1,0.0,28.83,ESE,112,0.0,2.0,91,0.00,,,0.00,Rainwise IP-100,2014-01-22 10:16:00,
2014-01-22 05:21:00,-0.3,0.0,28.83,ESE,112,2.0,0.0,91,0.00,,,0.00,Rainwise IP-100,2014-01-22 10:21:00,
2014-01-22 05:26:00,-0.5,0.0,28.82,ESE,112,2.0,2.0,91,0.00,,,0.00,Rainwise IP-100,2014-01-22 10:26:00,
2014-01-22 05:31:00,-0.6,0.0,28.82,ESE,112,2.0,2.0,91,0.00,,,0.00,Rainwise IP-100,2014-01-22 10:31:00,
2014-01-22 05:36:00,-0.9,0.0,28.82,ESE,112,1.0,2.0,91,0.00,,,0.00,Rainwise IP-100,2014-01-22 10:36:00,
2014-01-22 05:41:00,-1.3,0.0,28.82,ESE,112,0.0,2.0,91,0.00,,,0.00,Rainwise IP-100,2014-01-22 10:41:00,
2014-01-22 05:46:00,-1.7,0.0,28.81,ESE,112,0.0,0.0,91,0.00,,,0.00,Rainwise IP-100,2014-01-22 10:46:00,
2014-01-22 05:52:00,-1.9,0.0,28.81,ESE,112,1.0,1.0,91,0.00,,,0.00,Rainwise IP-100,2014-01-22 10:52:00,
2014-01-22 05:57:00,-1.8,0.0,28.81,ESE,112,1.0,2.0,91,0.00,,,0.00,Rainwise IP-100,2014-01-22 10:57:00,
2014-01-22 06:02:00,-2.3,0.0,28.81,SSE,157,1.0,2.0,91,0.00,,,0.00,Rainwise IP-100,2014-01-22 11:02:00,
2014-01-22 06:07:00,-2.4,0.0,28.81,SSE,157,2.0,3.0,91,0.00,,,0.00,Rainwise IP-100,2014-01-22 11:07:00,
2014-01-22 06:12:00,-2.4,0.0,28.81,SSE,157,1.0,2.0,91,0.00,,,0.00,Rainwise IP-100,2014-01-22 11:12:00,
2014-01-22 06:17:00,-2.2,0.0,28.81,SSE,157,2.0,2.0,91,0.00,,,0.00,Rainwise IP-100,2014-01-22 11:17:00,
2014-01-22 06:22:00,-2.3,0.0,28.81,SSE,157,1.0,2.0,91,0.00,,,0.00,Rainwise IP-100,2014-01-22 11:22:00,
2014-01-22 06:27:00,-2.4,0.0,28.81,SSE,157,1.0,2.0,91,0.00,,,0.00,Rainwise IP-100,2014-01-22 11:27:00,
2014-01-22 06:32:00,-2.5,0.0,28.80,SSE,157,1.0,2.0,91,0.00,,,0.00,Rainwise IP-100,2014-01-22 11:32:00,
2014-01-22 06:37:00,-2.6,0.0,28.80,SSE,157,2.0,2.0,91,0.00,,,0.00,Rainwise IP-100,2014-01-22 11:37:00,
2014-01-22 06:42:00,-2.6,0.0,28.80,SSE,157,2.0,2.0,91,0.00,,,0.00,Rainwise IP-100,2014-01-22 11:42:00,
2014-01-22 06:47:00,-3.1,0.0,28.79,SSE,157,2.0,2.0,91,0.00,,,0.00,Rainwise IP-100,2014-01-22 11:47:00,
2014-01-22 06:53:00,-3.7,0.0,28.79,SSE,157,2.0,2.0,91,0.00,,,0.00,Rainwise IP-100,2014-01-22 11:53:00,
2014-01-22 06:58:00,-4.2,0.0,28.79,SSE,157,2.0,2.0,92,0.00,,,0.00,Rainwise IP-100,2014-01-22 11:58:00,
2014-01-22 07:03:00,-4.6,0.0,28.78,SSE,157,2.0,2.0,92,0.00,,,0.00,Rainwise IP-100,2014-01-22 12:03:00,
2014-01-22 07:08:00,-4.5,0.0,28.79,SSW,202,2.0,2.0,92,0.00,,,0.00,Rainwise IP-100,2014-01-22 12:08:00,
2014-01-22 07:13:00,-4.6,0.0,28.79,SSW,202,1.0,2.0,92,0.00,,,0.00,Rainwise IP-100,2014-01-22 12:13:00,
2014-01-22 07:18:00,-4.8,0.0,28.79,SSW,202,1.0,2.0,92,0.00,,,0.00,Rainwise IP-100,2014-01-22 12:18:00,
2014-01-22 07:23:00,-5.2,0.0,28.79,SSW,202,1.0,2.0,92,0.00,,,0.00,Rainwise IP-100,2014-01-22 12:23:00,
2014-01-22 07:28:00,-5.6,0.0,28.79,SSW,202,1.0,2.0,92,0.00,,,0.00,Rainwise IP-100,2014-01-22 12:28:00,
2014-01-22 07:33:00,-6.1,-6.0,28.79,SSW,202,1.0,2.0,92,0.00,,,0.00,Rainwise IP-100,2014-01-22 12:33:00,
2014-01-22 07:38:00,-6.2,-6.0,28.79,SSW,202,2.0,2.0,92,0.00,,,0.00,Rainwise IP-100,2014-01-22 12:38:00,
2014-01-22 07:43:00,-6.5,-6.0,28.79,SSW,202,1.0,2.0,92,0.00,,,0.00,Rainwise IP-100,2014-01-22 12:43:00,
2014-01-22 07:48:00,-6.8,-6.0,28.79,SSW,202,2.0,2.0,92,0.00,,,0.00,Rainwise IP-100,2014-01-22 12:48:00,
2014-01-22 07:54:00,-6.8,-6.0,28.79,SSW,202,2.0,2.0,92,0.00,,,0.00,Rainwise IP-100,2014-01-22 12:54:00,
2014-01-22 07:59:00,-6.6,-6.0,28.80,SSW,202,2.0,2.0,92,0.00,,,0.00,Rainwise IP-100,2014-01-22 12:59:00,
2014-01-22 08:04:00,-6.5,-6.0,28.80,SSW,202,2.0,2.0,92,0.00,,,0.00,Rainwise IP-100,2014-01-22 13:04:00,
2014-01-22 08:09:00,-6.2,-6.0,28.81,SSW,202,2.0,2.0,92,0.00,,,0.00,Rainwise IP-100,2014-01-22 13:09:00,
2014-01-22 08:14:00,-5.9,-6.0,28.81,SSW,202,2.0,3.0,92,0.00,,,0.00,Rainwise IP-100,2014-01-22 13:14:00,
2014-01-22 08:19:00,-5.4,0.0,28.81,SSW,202,2.0,3.0,92,0.00,,,0.00,Rainwise IP-100,2014-01-22 13:19:00,
2014-01-22 08:24:00,-4.8,0.0,28.80,SSW,202,1.0,3.0,92,0.00,,,0.00,Rainwise IP-100,2014-01-22 13:24:00,
2014-01-22 08:29:00,-4.4,0.0,28.81,SSW,202,2.0,2.0,92,0.00,,,0.00,Rainwise IP-100,2014-01-22 13:29:00,
2014-01-22 08:34:00,-3.8,0.0,28.81,SSW,202,1.0,3.0,91,0.00,,,0.00,Rainwise IP-100,2014-01-22 13:34:00,
2014-01-22 08:39:00,-3.2,0.0,28.82,SSW,202,2.0,3.0,91,0.00,,,0.00,Rainwise IP-100,2014-01-22 13:39:00,
2014-01-22 08:44:00,-2.5,0.0,28.82,South,180,4.0,4.0,91,0.00,,,0.00,Rainwise IP-100,2014-01-22 13:44:00,
2014-01-22 08:49:00,-2.1,0.0,28.83,South,180,2.0,4.0,91,0.00,,,0.00,Rainwise IP-100,2014-01-22 13:49:00,
2014-01-22 08:55:00,-1.6,0.0,28.83,South,180,4.0,5.0,91,0.00,,,0.00,Rainwise IP-100,2014-01-22 13:55:00,
2014-01-22 09:00:00,-1.2,0.0,28.83,South,180,2.0,4.0,91,0.00,,,0.00,Rainwise IP-100,2014-01-22 14:00:00,
2014-01-22 09:05:00,-0.7,0.0,28.84,SSE,157,2.0,3.0,91,0.00,,,0.00,Rainwise IP-100,2014-01-22 14:05:00,
2014-01-22 09:10:00,-0.3,0.0,28.84,SSE,157,2.0,2.0,91,0.00,,,0.00,Rainwise IP-100,2014-01-22 14:10:00,
2014-01-22 09:15:00,0.1,0.0,28.84,South,180,2.0,5.0,91,0.00,,,0.00,Rainwise IP-100,2014-01-22 14:15:00,
2014-01-22 09:20:00,0.3,0.0,28.85,South,180,2.0,4.0,91,0.00,,,0.00,Rainwise IP-100,2014-01-22 14:20:00,
2014-01-22 09:25:00,0.7,4.0,28.84,South,180,4.0,4.0,91,0.00,,,0.00,Rainwise IP-100,2014-01-22 14:25:00,
2014-01-22 09:30:00,0.9,4.0,28.84,South,180,3.0,4.0,91,0.00,,,0.00,Rainwise IP-100,2014-01-22 14:30:00,
2014-01-22 09:35:00,1.2,4.0,28.84,South,180,3.0,4.0,91,0.00,,,0.00,Rainwise IP-100,2014-01-22 14:35:00,
2014-01-22 09:40:00,1.5,4.0,28.84,South,180,2.0,4.0,91,0.00,,,0.00,Rainwise IP-100,2014-01-22 14:40:00,
2014-01-22 09:45:00,1.8,4.0,28.85,South,180,1.0,3.0,91,0.00,,,0.00,Rainwise IP-100,2014-01-22 14:45:00,
2014-01-22 09:50:00,2.2,4.0,28.85,SSW,202,2.0,3.0,91,0.00,,,0.00,Rainwise IP-100,2014-01-22 14:50:00,
2014-01-22 09:56:00,2.6,4.0,28.85,SSW,202,0.0,2.0,91,0.00,,,0.00,Rainwise IP-100,2014-01-22 14:56:00,
2014-01-22 10:01:00,3.3,4.0,28.86,South,180,1.0,2.0,91,0.00,,,0.00,Rainwise IP-100,2014-01-22 15:01:00,
2014-01-22 10:06:00,3.3,4.0,28.86,South,180,1.0,2.0,91,0.00,,,0.00,Rainwise IP-100,2014-01-22 15:06:00,
2014-01-22 10:11:00,3.6,4.0,28.86,South,180,1.0,2.0,91,0.00,,,0.00,Rainwise IP-100,2014-01-22 15:11:00,
2014-01-22 10:16:00,3.6,4.0,28.87,South,180,2.0,2.0,91,0.00,,,0.00,Rainwise IP-100,2014-01-22 15:16:00,
2014-01-22 10:21:00,3.4,0.0,28.87,SSE,157,1.0,2.0,89,0.00,,,0.00,Rainwise IP-100,2014-01-22 15:21:00,
2014-01-22 10:26:00,3.5,0.0,28.87,SE,135,2.0,2.0,89,0.00,,,0.00,Rainwise IP-100,2014-01-22 15:26:00,
2014-01-22 10:31:00,3.9,4.0,28.87,NE,45,0.0,4.0,91,0.00,,,0.00,Rainwise IP-100,2014-01-22 15:31:00,
2014-01-22 10:36:00,3.9,0.0,28.87,ESE,112,2.0,2.0,87,0.00,,,0.00,Rainwise IP-100,2014-01-22 15:36:00,
2014-01-22 10:41:00,4.1,0.0,28.88,ESE,112,0.0,3.0,89,0.00,,,0.00,Rainwise IP-100,2014-01-22 15:41:00,
2014-01-22 10:46:00,5.1,4.0,28.88,SE,135,1.0,2.0,87,0.00,,,0.00,Rainwise IP-100,2014-01-22 15:46:00,
2014-01-22 10:51:00,5.1,4.0,28.89,SE,135,1.0,4.0,85,0.00,,,0.00,Rainwise IP-100,2014-01-22 15:51:00,
2014-01-22 10:57:00,5.1,4.0,28.89,SE,135,2.0,3.0,85,0.00,,,0.00,Rainwise IP-100,2014-01-22 15:57:00,
2014-01-22 11:02:00,5.5,4.0,28.88,SE,135,2.0,2.0,84,0.00,,,0.00,Rainwise IP-100,2014-01-22 16:02:00,
2014-01-22 11:07:00,5.3,4.0,28.89,ESE,112,1.0,3.0,84,0.00,,,0.00,Rainwise IP-100,2014-01-22 16:07:00,
2014-01-22 11:12:00,6.1,4.0,28.88,ESE,112,0.0,2.0,85,0.00,,,0.00,Rainwise IP-100,2014-01-22 16:12:00,
2014-01-22 11:17:00,6.9,4.0,28.88,SSW,202,1.0,2.0,83,0.00,,,0.00,Rainwise IP-100,2014-01-22 16:17:00,
2014-01-22 11:22:00,7.5,4.0,28.88,South,180,0.0,2.0,81,0.00,,,0.00,Rainwise IP-100,2014-01-22 16:22:00,
2014-01-22 11:27:00,7.9,4.0,28.88,ESE,112,1.0,2.0,80,0.00,,,0.00,Rainwise IP-100,2014-01-22 16:27:00,
2014-01-22 11:32:00,7.9,4.0,28.88,ENE,67,1.0,4.0,81,0.00,,,0.00,Rainwise IP-100,2014-01-22 16:32:00,
2014-01-22 11:37:00,8.3,4.0,28.89,North,360,1.0,4.0,82,0.00,,,0.00,Rainwise IP-100,2014-01-22 16:37:00,
2014-01-22 11:42:00,8.4,4.0,28.89,East,90,0.0,2.0,77,0.00,,,0.00,Rainwise IP-100,2014-01-22 16:42:00,
2014-01-22 11:47:00,8.7,4.0,28.88,East,90,2.0,3.0,76,0.00,,,0.00,Rainwise IP-100,2014-01-22 16:47:00,
2014-01-22 11:52:00,8.2,4.0,28.88,SE,135,0.0,4.0,78,0.00,,,0.00,Rainwise IP-100,2014-01-22 16:52:00,
2014-01-22 11:58:00,7.8,4.0,28.88,SSE,157,1.0,3.0,77,0.00,,,0.00,Rainwise IP-100,2014-01-22 16:58:00,
2014-01-22 12:03:00,7.1,4.0,28.87,SW,225,1.0,4.0,77,0.00,,,0.00,Rainwise IP-100,2014-01-22 17:03:00,
2014-01-22 12:08:00,8.2,4.0,28.87,SW,225,1.0,2.0,79,0.00,,,0.00,Rainwise IP-100,2014-01-22 17:08:00,
2014-01-22 12:13:00,7.9,4.0,28.87,SE,135,1.0,2.0,77,0.00,,,0.00,Rainwise IP-100,2014-01-22 17:13:00,
2014-01-22 12:18:00,9.2,4.0,28.87,SSW,202,0.0,2.0,76,0.00,,,0.00,Rainwise IP-100,2014-01-22 17:18:00,
2014-01-22 12:23:00,9.2,4.0,28.87,SW,225,3.0,4.0,74,0.00,,,0.00,Rainwise IP-100,2014-01-22 17:23:00,
2014-01-22 12:28:00,7.9,0.0,28.87,WNW,292,2.0,6.0,73,0.00,,,0.00,Rainwise IP-100,2014-01-22 17:28:00,
2014-01-22 12:33:00,8.4,4.0,28.87,NW,315,2.0,5.0,75,0.00,,,0.00,Rainwise IP-100,2014-01-22 17:33:00,
2014-01-22 12:38:00,9.4,4.0,28.87,North,360,2.0,4.0,74,0.00,,,0.00,Rainwise IP-100,2014-01-22 17:38:00,
2014-01-22 12:43:00,8.9,4.0,28.87,West,270,1.0,4.0,71,0.00,,,0.00,Rainwise IP-100,2014-01-22 17:43:00,
2014-01-22 12:48:00,7.6,0.0,28.86,West,270,1.0,4.0,73,0.00,,,0.00,Rainwise IP-100,2014-01-22 17:48:00,
2014-01-22 12:53:00,8.3,0.0,28.86,West,270,2.0,2.0,74,0.00,,,0.00,Rainwise IP-100,2014-01-22 17:53:00,
2014-01-22 12:59:00,9.2,4.0,28.86,NW,315,2.0,4.0,76,0.00,,,0.00,Rainwise IP-100,2014-01-22 17:59:00,
2014-01-22 13:04:00,11.6,8.0,28.86,North,360,1.0,4.0,77,0.00,,,0.00,Rainwise IP-100,2014-01-22 18:04:00,
2014-01-22 13:09:00,12.6,8.0,28.85,West,270,3.0,3.0,70,0.00,,,0.00,Rainwise IP-100,2014-01-22 18:09:00,
2014-01-22 13:14:00,9.6,4.0,28.86,WSW,247,4.0,7.0,68,0.00,,,0.00,Rainwise IP-100,2014-01-22 18:14:00,
2014-01-22 13:19:00,8.9,4.0,28.87,SW,225,3.0,7.0,70,0.00,,,0.00,Rainwise IP-100,2014-01-22 18:19:00,
2014-01-22 13:24:00,8.2,0.0,28.87,West,270,4.0,9.0,69,0.00,,,0.00,Rainwise IP-100,2014-01-22 18:24:00,
2014-01-22 13:29:00,7.8,0.0,28.86,West,270,4.0,7.0,70,0.00,,,0.00,Rainwise IP-100,2014-01-22 18:29:00,
2014-01-22 13:34:00,7.5,0.0,28.85,WSW,247,2.0,5.0,70,0.00,,,0.00,Rainwise IP-100,2014-01-22 18:34:00,
2014-01-22 13:39:00,7.9,0.0,28.85,SW,225,2.0,5.0,70,0.00,,,0.00,Rainwise IP-100,2014-01-22 18:39:00,
2014-01-22 13:44:00,8.3,0.0,28.84,SSW,202,1.0,3.0,71,0.00,,,0.00,Rainwise IP-100,2014-01-22 18:44:00,
2014-01-22 13:49:00,7.7,0.0,28.84,West,270,3.0,6.0,71,0.00,,,0.00,Rainwise IP-100,2014-01-22 18:49:00,
2014-01-22 13:54:00,7.7,0.0,28.84,WSW,247,3.0,4.0,73,0.00,,,0.00,Rainwise IP-100,2014-01-22 18:54:00,
2014-01-22 14:00:00,7.9,0.0,28.84,West,270,4.0,6.0,73,0.00,,,0.00,Rainwise IP-100,2014-01-22 19:00:00,
2014-01-22 14:05:00,8.2,0.0,28.83,WSW,247,1.0,8.0,71,0.00,,,0.00,Rainwise IP-100,2014-01-22 19:05:00,
2014-01-22 14:10:00,8.4,0.0,28.84,SW,225,2.0,7.0,70,0.00,,,0.00,Rainwise IP-100,2014-01-22 19:10:00,
2014-01-22 14:15:00,8.2,0.0,28.83,SW,225,4.0,8.0,71,0.00,,,0.00,Rainwise IP-100,2014-01-22 19:15:00,
2014-01-22 14:20:00,7.8,0.0,28.83,SW,225,4.0,7.0,73,0.00,,,0.00,Rainwise IP-100,2014-01-22 19:20:00,
2014-01-22 14:25:00,7.5,0.0,28.82,WSW,247,2.0,8.0,73,0.00,,,0.00,Rainwise IP-100,2014-01-22 19:25:00,
2014-01-22 14:30:00,7.5,0.0,28.82,WSW,247,5.0,7.0,74,0.00,,,0.00,Rainwise IP-100,2014-01-22 19:30:00,
2014-01-22 14:35:00,7.4,0.0,28.81,West,270,3.0,6.0,74,0.00,,,0.00,Rainwise IP-100,2014-01-22 19:35:00,
2014-01-22 14:40:00,7.2,4.0,28.81,West,270,4.0,7.0,76,0.00,,,0.00,Rainwise IP-100,2014-01-22 19:40:00,
2014-01-22 14:45:00,6.9,4.0,28.81,West,270,1.0,6.0,78,0.00,,,0.00,Rainwise IP-100,2014-01-22 19:45:00,
2014-01-22 14:50:00,6.8,4.0,28.80,West,270,2.0,7.0,80,0.00,,,0.00,Rainwise IP-100,2014-01-22 19:50:00,
2014-01-22 14:55:00,6.9,4.0,28.80,WNW,292,1.0,4.0,81,0.00,,,0.00,Rainwise IP-100,2014-01-22 19:55:00,
2014-01-22 15:01:00,6.8,4.0,28.80,WSW,247,2.0,5.0,81,0.00,,,0.00,Rainwise IP-100,2014-01-22 20:01:00,
2014-01-22 15:06:00,6.7,4.0,28.80,WSW,247,3.0,4.0,83,0.00,,,0.00,Rainwise IP-100,2014-01-22 20:06:00,
2014-01-22 15:11:00,6.5,4.0,28.80,West,270,3.0,4.0,84,0.00,,,0.00,Rainwise IP-100,2014-01-22 20:11:00,
2014-01-22 15:16:00,6.4,4.0,28.80,WSW,247,3.0,4.0,84,0.00,,,0.00,Rainwise IP-100,2014-01-22 20:16:00,
2014-01-22 15:21:00,6.4,4.0,28.80,WSW,247,2.0,4.0,84,0.00,,,0.00,Rainwise IP-100,2014-01-22 20:21:00,
2014-01-22 15:26:00,6.5,4.0,28.79,WSW,247,2.0,3.0,85,0.00,,,0.00,Rainwise IP-100,2014-01-22 20:26:00,
2014-01-22 15:31:00,6.8,4.0,28.79,West,270,2.0,2.0,85,0.00,,,0.00,Rainwise IP-100,2014-01-22 20:31:00,
2014-01-22 15:36:00,7.3,4.0,28.80,SW,225,1.0,2.0,84,0.00,,,0.00,Rainwise IP-100,2014-01-22 20:36:00,
2014-01-22 15:41:00,7.5,4.0,28.80,West,270,2.0,3.0,82,0.00,,,0.00,Rainwise IP-100,2014-01-22 20:41:00,
2014-01-22 15:46:00,7.8,4.0,28.81,WNW,292,4.0,6.0,79,0.00,,,0.00,Rainwise IP-100,2014-01-22 20:46:00,
2014-01-22 15:51:00,7.9,4.0,28.82,West,270,3.0,7.0,77,0.00,,,0.00,Rainwise IP-100,2014-01-22 20:51:00,
2014-01-22 15:56:00,7.9,4.0,28.82,West,270,2.0,8.0,77,0.00,,,0.00,Rainwise IP-100,2014-01-22 20:56:00,
2014-01-22 16:02:00,7.9,4.0,28.82,WNW,292,6.0,6.0,77,0.00,,,0.00,Rainwise IP-100,2014-01-22 21:02:00,
2014-01-22 16:07:00,7.8,4.0,28.82,West,270,5.0,6.0,77,0.00,,,0.00,Rainwise IP-100,2014-01-22 21:07:00,
2014-01-22 16:12:00,7.5,4.0,28.82,West,270,4.0,8.0,77,0.00,,,0.00,Rainwise IP-100,2014-01-22 21:12:00,
2014-01-22 16:17:00,7.4,4.0,28.82,WNW,292,2.0,9.0,75,0.00,,,0.00,Rainwise IP-100,2014-01-22 21:17:00,
2014-01-22 16:22:00,7.2,4.0,28.82,West,270,4.0,6.0,77,0.00,,,0.00,Rainwise IP-100,2014-01-22 21:22:00,
2014-01-22 16:27:00,7.1,4.0,28.82,West,270,4.0,7.0,79,0.00,,,0.00,Rainwise IP-100,2014-01-22 21:27:00,
2014-01-22 16:32:00,6.9,4.0,28.81,West,270,1.0,7.0,79,0.00,,,0.00,Rainwise IP-100,2014-01-22 21:32:00,
2014-01-22 16:37:00,6.8,4.0,28.81,West,270,2.0,6.0,80,0.00,,,0.00,Rainwise IP-100,2014-01-22 21:37:00,
2014-01-22 16:42:00,6.6,4.0,28.81,West,270,3.0,5.0,81,0.00,,,0.00,Rainwise IP-100,2014-01-22 21:42:00,
2014-01-22 16:47:00,6.5,4.0,28.80,West,270,2.0,5.0,82,0.00,,,0.00,Rainwise IP-100,2014-01-22 21:47:00,
2014-01-22 16:52:00,6.4,4.0,28.81,West,270,1.0,2.0,82,0.00,,,0.00,Rainwise IP-100,2014-01-22 21:52:00,
2014-01-22 16:57:00,6.4,4.0,28.81,West,270,1.0,2.0,83,0.00,,,0.00,Rainwise IP-100,2014-01-22 21:57:00,
2014-01-22 17:03:00,6.3,4.0,28.81,NW,315,1.0,2.0,83,0.00,,,0.00,Rainwise IP-100,2014-01-22 22:03:00,
2014-01-22 17:08:00,6.2,4.0,28.81,NW,315,1.0,2.0,84,0.00,,,0.00,Rainwise IP-100,2014-01-22 22:08:00,
2014-01-22 17:13:00,6.1,4.0,28.81,NW,315,0.0,1.0,84,0.00,,,0.00,Rainwise IP-100,2014-01-22 22:13:00,
2014-01-22 17:18:00,5.8,4.0,28.80,NW,315,0.0,0.0,84,0.00,,,0.00,Rainwise IP-100,2014-01-22 22:18:00,
2014-01-22 17:23:00,5.7,4.0,28.80,NW,315,0.0,0.0,85,0.00,,,0.00,Rainwise IP-100,2014-01-22 22:23:00,
2014-01-22 17:28:00,5.5,4.0,28.80,NW,315,0.0,0.0,85,0.00,,,0.00,Rainwise IP-100,2014-01-22 22:28:00,
2014-01-22 17:33:00,5.3,4.0,28.80,NW,315,0.0,0.0,85,0.00,,,0.00,Rainwise IP-100,2014-01-22 22:33:00,
2014-01-22 17:38:00,5.1,4.0,28.81,NW,315,0.0,0.0,85,0.00,,,0.00,Rainwise IP-100,2014-01-22 22:38:00,
2014-01-22 17:43:00,4.9,4.0,28.81,NW,315,0.0,0.0,86,0.00,,,0.00,Rainwise IP-100,2014-01-22 22:43:00,
2014-01-22 17:48:00,4.9,4.0,28.81,NW,315,0.0,0.0,86,0.00,,,0.00,Rainwise IP-100,2014-01-22 22:48:00,
2014-01-22 17:53:00,4.2,0.0,28.81,South,180,2.0,5.0,86,0.00,,,0.00,Rainwise IP-100,2014-01-22 22:53:00,
2014-01-22 17:58:00,4.1,0.0,28.81,SSW,202,3.0,6.0,84,0.00,,,0.00,Rainwise IP-100,2014-01-22 22:58:00,
2014-01-22 18:04:00,4.3,0.0,28.81,SSW,202,3.0,6.0,81,0.00,,,0.00,Rainwise IP-100,2014-01-22 23:04:00,
2014-01-22 18:09:00,4.3,0.0,28.81,SW,225,2.0,4.0,80,0.00,,,0.00,Rainwise IP-100,2014-01-22 23:09:00,
2014-01-22 18:15:00,4.3,0.0,28.81,SSW,202,2.0,5.0,79,0.00,,,0.00,Rainwise IP-100,2014-01-22 23:15:00,
2014-01-22 18:20:00,4.3,0.0,28.81,SW,225,1.0,4.0,79,0.00,,,0.00,Rainwise IP-100,2014-01-22 23:20:00,
2014-01-22 18:25:00,4.3,0.0,28.81,SSW,202,1.0,4.0,78,0.00,,,0.00,Rainwise IP-100,2014-01-22 23:25:00,
2014-01-22 18:30:00,4.3,0.0,28.81,SW,225,4.0,4.0,78,0.00,,,0.00,Rainwise IP-100,2014-01-22 23:30:00,
2014-01-22 18:35:00,4.2,0.0,28.81,SSW,202,2.0,5.0,78,0.00,,,0.00,Rainwise IP-100,2014-01-22 23:35:00,
2014-01-22 18:40:00,3.9,0.0,28.81,SSW,202,2.0,4.0,77,0.00,,,0.00,Rainwise IP-100,2014-01-22 23:40:00,
2014-01-22 18:45:00,3.9,0.0,28.81,SSW,202,2.0,4.0,78,0.00,,,0.00,Rainwise IP-100,2014-01-22 23:45:00,
2014-01-22 18:50:00,3.9,0.0,28.81,SSW,202,4.0,4.0,78,0.00,,,0.00,Rainwise IP-100,2014-01-22 23:50:00,
2014-01-22 18:55:00,3.9,0.0,28.81,SW,225,4.0,4.0,78,0.00,,,0.00,Rainwise IP-100,2014-01-22 23:55:00,
2014-01-22 19:00:00,4.1,0.0,28.81,WSW,247,2.0,5.0,78,0.00,,,0.00,Rainwise IP-100,2014-01-23 00:00:00,
2014-01-22 19:06:00,4.2,0.0,28.81,SW,225,2.0,5.0,78,0.00,,,0.00,Rainwise IP-100,2014-01-23 00:06:00,
2014-01-22 19:11:00,4.2,0.0,28.81,SSW,202,4.0,4.0,78,0.00,,,0.00,Rainwise IP-100,2014-01-23 00:11:00,
2014-01-22 19:16:00,3.9,0.0,28.81,SSW,202,2.0,4.0,77,0.00,,,0.00,Rainwise IP-100,2014-01-23 00:16:00,
2014-01-22 19:21:00,3.9,0.0,28.81,SSW,202,2.0,4.0,78,0.00,,,0.00,Rainwise IP-100,2014-01-23 00:21:00,
2014-01-22 19:26:00,3.8,0.0,28.81,SSW,202,2.0,4.0,78,0.00,,,0.00,Rainwise IP-100,2014-01-23 00:26:00,
2014-01-22 19:31:00,3.6,0.0,28.81,SSW,202,2.0,4.0,78,0.00,,,0.00,Rainwise IP-100,2014-01-23 00:31:00,
2014-01-22 19:36:00,3.5,0.0,28.81,SSW,202,1.0,2.0,78,0.00,,,0.00,Rainwise IP-100,2014-01-23 00:36:00,
2014-01-22 19:41:00,3.3,0.0,28.81,SSW,202,2.0,3.0,78,0.00,,,0.00,Rainwise IP-100,2014-01-23 00:41:00,
2014-01-22 19:46:00,2.9,0.0,28.80,SSW,202,1.0,2.0,79,0.00,,,0.00,Rainwise IP-100,2014-01-23 00:46:00,
2014-01-22 19:51:00,2.6,0.0,28.80,SSW,202,2.0,3.0,79,0.00,,,0.00,Rainwise IP-100,2014-01-23 00:51:00,
2014-01-22 21:17:00,0.9,0.0,28.79,SSW,202,3.0,6.0,87,0.00,,,0.00,Rainwise IP-100,2014-01-23 02:17:00,
2014-01-22 21:20:00,0.8,0.0,28.79,SSW,202,3.0,6.0,87,0.00,,,0.00,Rainwise IP-100,2014-01-23 02:20:00,
2014-01-22 21:25:00,0.8,0.0,28.79,SSW,202,5.0,6.0,88,0.00,,,0.00,Rainwise IP-100,2014-01-23 02:25:00,
2014-01-22 21:28:00,0.9,0.0,28.79,South,180,6.0,6.0,88,0.00,,,0.00,Rainwise IP-100,2014-01-23 02:28:00,
2014-01-22 21:33:00,0.9,0.0,28.79,SSW,202,4.0,7.0,88,0.00,,,0.00,Rainwise IP-100,2014-01-23 02:33:00,
2014-01-22 21:34:00,0.9,0.0,28.79,SSW,202,6.0,6.0,88,0.00,,,0.00,Rainwise IP-100,2014-01-23 02:34:00,
2014-01-22 21:35:00,0.9,0.0,28.79,SW,225,4.0,6.0,88,0.00,,,0.00,Rainwise IP-100,2014-01-23 02:35:00,
2014-01-22 21:40:00,1.3,0.0,28.79,SSW,202,4.0,6.0,88,0.00,,,0.00,Rainwise IP-100,2014-01-23 02:40:00,
2014-01-22 21:45:00,1.5,0.0,28.79,SSW,202,3.0,6.0,88,0.00,,,0.00,Rainwise IP-100,2014-01-23 02:45:00,
2014-01-22 21:50:00,1.5,0.0,28.79,SSW,202,4.0,5.0,88,0.00,,,0.00,Rainwise IP-100,2014-01-23 02:50:00,
2014-01-22 21:52:00,1.5,0.0,28.79,SSW,202,3.0,5.0,88,0.00,,,0.00,Rainwise IP-100,2014-01-23 02:52:00,
2014-01-22 21:57:00,1.5,0.0,28.79,SSW,202,3.0,6.0,88,0.00,,,0.00,Rainwise IP-100,2014-01-23 02:57:00,
2014-01-22 22:02:00,1.5,0.0,28.79,SSW,202,4.0,6.0,88,0.00,,,0.00,Rainwise IP-100,2014-01-23 03:02:00,
2014-01-22 22:08:00,1.6,0.0,28.79,SSW,202,4.0,6.0,88,0.00,,,0.00,Rainwise IP-100,2014-01-23 03:08:00,
2014-01-22 22:13:00,1.7,0.0,28.79,SSW,202,3.0,7.0,88,0.00,,,0.00,Rainwise IP-100,2014-01-23 03:13:00,
2014-01-22 22:18:00,1.8,0.0,28.79,SSW,202,4.0,8.0,87,0.00,,,0.00,Rainwise IP-100,2014-01-23 03:18:00,
2014-01-22 22:23:00,1.8,0.0,28.79,SSW,202,4.0,7.0,87,0.00,,,0.00,Rainwise IP-100,2014-01-23 03:23:00,
2014-01-22 22:24:00,1.9,0.0,28.79,SSW,202,4.0,6.0,87,0.00,,,0.00,Rainwise IP-100,2014-01-23 03:24:00,
2014-01-22 22:29:00,1.9,0.0,28.79,SSW,202,6.0,7.0,87,0.00,,,0.00,Rainwise IP-100,2014-01-23 03:29:00,
2014-01-22 22:34:00,2.1,0.0,28.79,SSW,202,4.0,7.0,87,0.00,,,0.00,Rainwise IP-100,2014-01-23 03:34:00,
2014-01-22 22:39:00,2.3,0.0,28.79,SSW,202,3.0,6.0,88,0.00,,,0.00,Rainwise IP-100,2014-01-23 03:39:00,
2014-01-22 22:44:00,2.6,0.0,28.79,SSW,202,5.0,7.0,88,0.00,,,0.00,Rainwise IP-100,2014-01-23 03:44:00,
2014-01-22 22:49:00,2.9,0.0,28.79,SW,225,4.0,7.0,88,0.00,,,0.00,Rainwise IP-100,2014-01-23 03:49:00,
2014-01-22 22:54:00,2.9,0.0,28.80,SSW,202,4.0,7.0,88,0.00,,,0.00,Rainwise IP-100,2014-01-23 03:54:00,
2014-01-22 22:59:00,3.2,0.0,28.80,SSW,202,4.0,6.0,88,0.00,,,0.00,Rainwise IP-100,2014-01-23 03:59:00,
2014-01-22 23:04:00,3.3,0.0,28.80,SSW,202,4.0,6.0,87,0.00,,,0.00,Rainwise IP-100,2014-01-23 04:04:00,
2014-01-22 23:10:00,3.5,0.0,28.80,SW,225,4.0,8.0,87,0.00,,,0.00,Rainwise IP-100,2014-01-23 04:10:00,
2014-01-22 23:15:00,3.5,0.0,28.80,SSW,202,6.0,8.0,87,0.00,,,0.00,Rainwise IP-100,2014-01-23 04:15:00,
2014-01-22 23:20:00,3.5,0.0,28.81,SW,225,5.0,7.0,87,0.00,,,0.00,Rainwise IP-100,2014-01-23 04:20:00,
2014-01-22 23:25:00,3.6,0.0,28.80,SSW,202,2.0,7.0,87,0.00,,,0.00,Rainwise IP-100,2014-01-23 04:25:00,
2014-01-22 23:30:00,3.6,0.0,28.80,SSW,202,2.0,8.0,87,0.00,,,0.00,Rainwise IP-100,2014-01-23 04:30:00,
2014-01-22 23:35:00,3.6,0.0,28.81,South,180,3.0,6.0,87,0.00,,,0.00,Rainwise IP-100,2014-01-23 04:35:00,
2014-01-22 23:40:00,3.7,0.0,28.80,South,180,2.0,6.0,87,0.00,,,0.00,Rainwise IP-100,2014-01-23 04:40:00,
2014-01-22 23:45:00,3.8,0.0,28.80,South,180,2.0,4.0,87,0.00,,,0.00,Rainwise IP-100,2014-01-23 04:45:00,
2014-01-22 23:50:00,3.9,0.0,28.81,SSW,202,2.0,6.0,87,0.00,,,0.00,Rainwise IP-100,2014-01-23 04:50:00,
2014-01-22 23:55:00,3.9,0.0,28.80,SSW,202,2.0,6.0,87,0.00,,,0.00,Rainwise IP-100,2014-01-23 04:55:00,